Weather History for Inverness, FL

Change the Weather History Date:

Wednesday, March 6, 2013

  Actual Average (KOCF) Record (KOCF)
Temperature  
Mean Temperature 55 °F -  
Max Temperature 64 °F 73 °F 86 °F (2003)
Min Temperature 44 °F 48 °F 32 °F (2007)
Degree Days  
Heating Degree Days 10    
Growing Degree Days 5 (Base 50)    
Moisture  
Dew Point 38 °F    
Average Humidity 54    
Maximum Humidity 94    
Minimum Humidity 34    
Precipitation  
Precipitation 0.00 in - - ()
Sea Level Pressure  
Sea Level Pressure 30.07 in    
Wind  
Wind Speed 6 mph (WNW)    
Max Wind Speed 14 mph    
Max Gust Speed 24 mph    
Visibility 10 miles    
Events Rain    
Averages and records for this station are not official NWS values.
T = Trace of Precipitation, MM = Missing Value Source: NWS Daily Summary

Daily Weather History Graph

Daily Weather History Graph

Search for Another Location

Airport:

Trip Planner

Search our weather history database for the weather conditions in past years. The results will help you decide how hot, cold, wet, or windy it might be!

Date:

Astronomy

Mar. 06, 2013 Rise Set
Actual Time 6:48 AM EST 6:32 PM EST
Civil Twilight 6:25 AM EST 6:56 PM EST
Nautical Twilight 5:57 AM EST 7:23 PM EST
Astronomical Twilight 5:30 AM EST 7:50 PM EST
Moon 2:37 AM EST (3/6) 1:32 PM EST (3/6)
Length of Visible Light 12h 31m
Length of Day
11h 43m
Waning Crescent, 30% of the Moon is Illuminated
Mar 6
Waning Crescent
Mar 11
New
Mar 19
First Quarter
Mar 27
Full
Apr 3
Last Quarter

Hourly Weather History & Observations

Time (EST) Temp. Windchill Dew Point Humidity Pressure Visibility Wind Dir Wind Speed Gust Speed Precip Events Conditions
12:15 AM 60.8 °F - 55.4 °F 82% 30.01 in 10.0 mi SSW 4.6 mph - N/A   Scattered Clouds
12:35 AM 62.6 °F - 55.4 °F 77% 30.01 in 10.0 mi SSW 6.9 mph - N/A   Mostly Cloudy
12:55 AM 62.6 °F - 57.2 °F 82% 30.00 in 10.0 mi SSW 4.6 mph - N/A   Overcast
1:15 AM 64.4 °F - 59.0 °F 83% 30.00 in 10.0 mi SW 6.9 mph 17.3 mph N/A   Overcast
1:35 AM 64.4 °F - 59.0 °F 83% 29.99 in 10.0 mi SW 4.6 mph - N/A   Overcast
1:55 AM 64.4 °F - 60.8 °F 88% 29.98 in 10.0 mi SW 6.9 mph - N/A   Overcast
2:15 AM 64.4 °F - 60.8 °F 88% 29.97 in 10.0 mi WSW 8.1 mph - N/A   Overcast
2:35 AM 64.4 °F - 60.8 °F 88% 29.96 in 10.0 mi SW 5.8 mph - N/A Rain Light Rain
2:55 AM 64.4 °F - 60.8 °F 88% 29.96 in 10.0 mi WSW 4.6 mph - N/A Rain Light Rain
3:15 AM 64.4 °F - 62.6 °F 94% 29.95 in 10.0 mi WSW 6.9 mph - N/A   Drizzle
3:35 AM 62.6 °F - 59.0 °F 88% 29.96 in 10.0 mi NNW 3.5 mph 20.7 mph N/A   Overcast
3:55 AM 60.8 °F - 53.6 °F 77% 29.97 in 10.0 mi WNW 5.8 mph - N/A   Overcast
4:15 AM 60.8 °F - 53.6 °F 77% 29.98 in 10.0 mi WNW 4.6 mph - N/A   Overcast
4:35 AM 60.8 °F - 53.6 °F 77% 29.99 in 10.0 mi Calm Calm - N/A   Overcast
4:55 AM 59.0 °F - 53.6 °F 82% 30.00 in 10.0 mi Calm Calm - N/A Rain Light Rain
5:15 AM 59.0 °F - 53.6 °F 82% 30.02 in 10.0 mi Calm Calm - N/A   Overcast
5:35 AM 57.2 °F - 46.4 °F 67% 30.04 in 10.0 mi NNW 13.8 mph 21.9 mph N/A   Overcast
5:55 AM 51.8 °F - 32.0 °F 47% 30.07 in 10.0 mi NNW 12.7 mph 24.2 mph N/A   Overcast
6:15 AM 50.0 °F - 32.0 °F 50% 30.09 in 10.0 mi North 11.5 mph 16.1 mph N/A   Mostly Cloudy
6:35 AM 48.2 °F - 32.0 °F 54% 30.09 in 10.0 mi North 11.5 mph 18.4 mph N/A   Mostly Cloudy
6:55 AM 48.2 °F - 32.0 °F 54% 30.10 in 10.0 mi North 10.4 mph 24.2 mph N/A   Scattered Clouds
7:15 AM 46.4 °F 44.3 °F 32.0 °F 57% 30.11 in 10.0 mi NNW 4.6 mph - N/A   Scattered Clouds
7:35 AM 46.4 °F 42.9 °F 32.0 °F 57% 30.13 in 10.0 mi NNW 6.9 mph - N/A   Clear
7:55 AM 48.2 °F - 32.0 °F 54% 30.14 in 10.0 mi NNW 5.8 mph - N/A   Clear
8:15 AM 50.0 °F - 32.0 °F 50% 30.14 in 10.0 mi NNW 5.8 mph - N/A   Clear
8:35 AM 50.0 °F - 32.0 °F 50% 30.14 in 10.0 mi NNW 9.2 mph - N/A   Clear
8:55 AM 50.0 °F - 32.0 °F 50% 30.15 in 10.0 mi NNW 6.9 mph 18.4 mph N/A   Clear
9:15 AM 51.8 °F - 30.2 °F 44% 30.15 in 10.0 mi NW 6.9 mph - N/A   Clear
9:35 AM 53.6 °F - 28.4 °F 38% 30.14 in 10.0 mi WNW 4.6 mph 17.3 mph N/A   Clear
9:55 AM 53.6 °F - 28.4 °F 38% 30.14 in 10.0 mi WNW 4.6 mph 18.4 mph N/A   Clear
10:15 AM 55.4 °F - 30.2 °F 38% 30.13 in 10.0 mi WNW 8.1 mph 19.6 mph N/A   Clear
10:35 AM 55.4 °F - 32.0 °F 41% 30.12 in 10.0 mi NW 6.9 mph - N/A   Clear
10:55 AM 57.2 °F - 32.0 °F 38% 30.11 in 10.0 mi West 9.2 mph - N/A   Clear
11:15 AM 59.0 °F - 32.0 °F 36% 30.11 in 10.0 mi NW 6.9 mph - N/A   Clear
11:35 AM 59.0 °F - 32.0 °F 36% 30.10 in 10.0 mi WNW 8.1 mph 17.3 mph N/A   Clear
11:55 AM 59.0 °F - 33.8 °F 39% 30.09 in 10.0 mi WNW 8.1 mph - N/A   Clear
12:15 PM 59.0 °F - 32.0 °F 36% 30.09 in 10.0 mi WNW 6.9 mph 17.3 mph N/A   Clear
12:35 PM 59.0 °F - 33.8 °F 39% 30.08 in 10.0 mi West 9.2 mph - N/A   Clear
12:55 PM 59.0 °F - 33.8 °F 39% 30.07 in 10.0 mi West 10.4 mph 18.4 mph N/A   Clear
1:15 PM 60.8 °F - 32.0 °F 34% 30.06 in 10.0 mi WNW 9.2 mph 17.3 mph N/A   Clear
1:35 PM 60.8 °F - 33.8 °F 36% 30.05 in 10.0 mi WNW 6.9 mph 16.1 mph N/A   Clear
1:55 PM 59.0 °F - 33.8 °F 39% 30.04 in 10.0 mi WNW 8.1 mph 18.4 mph N/A   Clear
2:15 PM 60.8 °F - 33.8 °F 36% 30.04 in 10.0 mi WNW 9.2 mph - N/A   Clear
2:35 PM 60.8 °F - 32.0 °F 34% 30.03 in 10.0 mi West 5.8 mph - N/A   Clear
2:55 PM 60.8 °F - 32.0 °F 34% 30.03 in 10.0 mi West 9.2 mph 16.1 mph N/A   Clear
3:15 PM 60.8 °F - 32.0 °F 34% 30.03 in 10.0 mi WNW 9.2 mph 18.4 mph N/A   Clear
3:35 PM 59.0 °F - 32.0 °F 36% 30.03 in 10.0 mi WNW 9.2 mph 20.7 mph N/A   Clear
3:55 PM 59.0 °F - 32.0 °F 36% 30.04 in 10.0 mi West 8.1 mph 17.3 mph N/A   Clear
4:15 PM 57.2 °F - 33.8 °F 41% 30.04 in 10.0 mi West 10.4 mph 18.4 mph N/A   Clear
4:35 PM 57.2 °F - 32.0 °F 38% 30.04 in 10.0 mi WNW 9.2 mph 18.4 mph N/A   Clear
4:55 PM 57.2 °F - 32.0 °F 38% 30.05 in 10.0 mi West 11.5 mph 17.3 mph N/A   Clear
5:15 PM 55.4 °F - 32.0 °F 41% 30.05 in 10.0 mi NW 4.6 mph - N/A   Clear
5:35 PM 55.4 °F - 32.0 °F 41% 30.06 in 10.0 mi West 8.1 mph - N/A   Clear
5:55 PM 53.6 °F - 32.0 °F 44% 30.06 in 10.0 mi WNW 4.6 mph - N/A   Clear
6:15 PM 53.6 °F - 33.8 °F 47% 30.07 in 10.0 mi WNW 3.5 mph - N/A   Clear
6:35 PM 53.6 °F - 32.0 °F 44% 30.07 in 10.0 mi NW 3.5 mph - N/A   Clear
6:55 PM 51.8 °F - 32.0 °F 47% 30.08 in 10.0 mi WNW 4.6 mph - N/A   Clear
7:15 PM 51.8 °F - 32.0 °F 47% 30.09 in 10.0 mi Calm Calm - N/A   Clear
7:35 PM 51.8 °F - 32.0 °F 47% 30.09 in 10.0 mi WNW 3.5 mph - N/A   Clear
7:55 PM 51.8 °F - 33.8 °F 50% 30.10 in 10.0 mi Calm Calm - N/A   Clear
8:15 PM 51.8 °F - 33.8 °F 50% 30.11 in 10.0 mi Calm Calm - N/A   Clear
8:35 PM 50.0 °F - 33.8 °F 54% 30.12 in 10.0 mi Calm Calm - N/A   Clear
8:55 PM 50.0 °F - 33.8 °F 54% 30.13 in 10.0 mi Calm Calm - N/A   Clear
9:35 PM 50.0 °F - 33.8 °F 54% 30.15 in 10.0 mi Calm Calm - N/A   Clear
9:55 PM 48.2 °F - 32.0 °F 54% 30.16 in 10.0 mi Calm Calm - N/A   Clear
10:15 PM 46.4 °F - 33.8 °F 62% 30.17 in 10.0 mi Calm Calm - N/A   Clear
10:35 PM 46.4 °F - 32.0 °F 57% 30.18 in 10.0 mi Calm Calm - N/A   Clear
10:55 PM 46.4 °F 44.3 °F 32.0 °F 57% 30.19 in 10.0 mi North 4.6 mph - N/A   Clear
11:15 PM 46.4 °F 45.2 °F 32.0 °F 57% 30.19 in 10.0 mi North 3.5 mph - N/A   Clear
11:35 PM 46.4 °F 44.3 °F 32.0 °F 57% 30.19 in 10.0 mi North 4.6 mph - N/A   Clear
11:55 PM 44.6 °F - 32.0 °F 61% 30.18 in 10.0 mi Calm Calm - N/A   Clear